EW4479 Weather Reports


Display with metric or nautical units.
time (UTC)temp
F
wind
direction
speed
MPH
gust
MPH
rain 1hr
in
rain 24hr
in
rain mn
in
humidity
%
barometer
mb
20260506023655 51 248 2.0 4.0 0.00 0.01 0.00 85 1009.2
20260506023155 50 251 1.0 2.0 0.00 0.01 0.00 86 1009.2
20260506022649 50 236 0.0 3.0 0.00 0.01 0.00 86 1009.1
20260506021640 50 241 0.0 2.0 0.00 0.01 0.00 87 1008.8
20260506021140 50 241 0.0 0.0 0.00 0.01 0.00 87 1009.0
20260506020638 50 241 0.0 0.0 0.00 0.01 0.00 86 1009.1
20260506020136 50 241 0.0 0.0 0.00 0.01 0.00 86 1009.1
20260506015131 50 202 0.0 3.0 0.00 0.01 0.00 86 1009.1
20260506014122 50 249 1.0 2.0 0.00 0.01 0.00 86 1009.1
20260506013621 50 250 0.0 2.0 0.00 0.01 0.00 86 1009.2
20260506013119 50 244 0.0 2.0 0.00 0.01 0.00 86 1009.3
20260506012618 50 214 0.0 2.0 0.00 0.01 0.00 86 1009.3
20260506011615 50 205 0.0 2.0 0.00 0.01 0.00 86 1009.4
20260506011113 50 222 1.0 4.0 0.00 0.01 0.00 86 1009.5
20260506010610 50 211 0.0 4.0 0.00 0.01 0.00 86 1009.5
20260506010110 50 217 1.0 3.0 0.00 0.01 0.00 86 1009.5
20260506005607 50 210 1.0 5.0 0.00 0.01 0.00 86 1009.4
20260506005104 51 188 3.0 5.0 0.00 0.01 0.00 85 1009.5
20260506004103 51 213 1.0 4.0 0.00 0.01 0.00 84 1009.4
20260506003602 52 244 2.0 5.0 0.00 0.01 0.00 83 1009.5
20260506003102 52 236 2.0 5.0 0.00 0.01 0.00 83 1009.5
20260506002605 52 217 2.0 3.0 0.00 0.01 0.00 83 1009.5
20260506002102 52 229 1.0 3.0 0.00 0.01 0.00 83 1009.7
20260506001601 52 206 1.0 4.0 0.00 0.01 0.00 83 1009.6
20260506001103 52 242 1.0 5.0 0.00 0.01 0.00 83 1009.7
20260506000602 52 246 1.0 5.0 0.00 0.01 0.00 83 1009.7
20260506000114 52 236 1.0 4.0 0.00 0.01 0.00 83 1009.7
20260505235600 52 232 2.0 5.0 0.00 0.01 0.00 83 1009.8
20260505234600 53 230 3.0 5.0 0.00 0.01 0.00 83 1009.9
20260505233601 53 234 1.0 3.0 0.00 0.01 0.00 83 1010.0
20260505233101 53 233 1.0 3.0 0.00 0.01 0.00 83 1010.0
20260505232600 53 246 0.0 3.0 0.00 0.01 0.00 83 1010.1
20260505232101 53 240 0.0 3.0 0.00 0.01 0.00 83 1010.1
20260505231600 53 225 1.0 3.0 0.00 0.01 0.00 83 1010.1
20260505231102 53 220 1.0 3.0 0.00 0.01 0.00 84 1010.2
20260505230602 53 207 2.0 5.0 0.00 0.01 0.00 84 1010.3
20260505230115 53 196 2.0 5.0 0.00 0.01 0.00 83 1010.3
20260505225603 53 209 1.0 3.0 0.00 0.01 0.00 82 1010.4
20260505224602 53 214 1.0 4.0 0.00 0.01 0.00 82 1010.4
20260505224103 53 219 1.0 4.0 0.00 0.01 0.00 83 1010.3
20260505223102 53 225 2.0 5.0 0.00 0.01 0.00 83 1010.1
20260505222602 53 204 2.0 5.0 0.00 0.01 0.00 82 1010.2
20260505222101 53 252 2.0 5.0 0.00 0.01 0.00 82 1010.3
20260505221604 54 232 2.0 7.0 0.00 0.01 0.00 82 1010.3
20260505221116 54 261 3.0 9.0 0.00 0.02 0.00 82 1010.4
20260505215601 55 255 2.0 8.0 0.00 0.02 0.02 80 1010.2
20260505215106 55 231 3.0 8.0 0.00 0.02 0.02 80 1010.1
20260505214600 55 269 3.0 10.0 0.00 0.02 0.02 80 1010.0
20260505214101 56 228 4.0 10.0 0.00 0.02 0.02 81 1009.9
20260505213600 56 242 3.0 8.0 0.00 0.02 0.02 81 1009.7
20260505213102 56 240 2.0 8.0 0.00 0.02 0.02 81 1009.8
20260505212115 56 257 0.0 5.0 0.00 0.02 0.02 80 1009.7
20260505211601 56 223 1.0 5.0 0.00 0.02 0.02 79 1009.8
20260505211103 57 273 2.0 5.0 0.00 0.02 0.02 79 1009.9
20260505210604 57 308 2.0 7.0 0.00 0.02 0.02 80 1009.9
20260505210106 57 274 2.0 8.0 0.00 0.02 0.02 80 1009.8
20260505204608 57 250 2.0 12.0 0.00 0.02 0.02 82 1010.0
20260505204101 57 318 2.0 12.0 0.00 0.02 0.02 82 1009.8
20260505203603 56 291 2.0 6.0 0.00 0.02 0.02 82 1009.9
20260505203101 56 215 1.0 6.0 0.00 0.04 0.02 81 1010.0
20260505202108 56 234 3.0 8.0 0.00 0.06 0.02 80 1009.9
20260505201600 56 243 1.0 5.0 0.00 0.09 0.02 81 1009.9
20260505201105 56 223 1.0 5.0 0.00 0.11 0.02 81 1009.8
20260505200603 56 224 1.0 4.0 0.00 0.12 0.02 81 1009.7
20260505195601 56 254 0.0 2.0 0.00 0.13 0.02 83 1009.5
20260505195101 56 266 0.0 3.0 0.00 0.13 0.02 83 1009.3
20260505194601 56 266 0.0 3.0 0.00 0.15 0.02 82 1009.2
20260505194103 56 226 1.0 3.0 0.00 0.16 0.02 82 1009.2
20260505193601 56 246 1.0 3.0 0.00 0.17 0.02 82 1009.1
20260505193102 56 262 1.0 3.0 0.00 0.19 0.02 82 1009.1
20260505192600 56 291 0.0 3.0 0.00 0.19 0.02 82 1009.0
20260505192102 56 302 0.0 4.0 0.00 0.19 0.02 82 1009.1
20260505191601 56 288 2.0 4.0 0.00 0.19 0.02 81 1008.8
20260505191104 56 277 1.0 4.0 0.00 0.20 0.02 81 1008.7
20260505190602 57 278 1.0 5.0 0.00 0.20 0.02 80 1008.6
20260505190107 57 296 2.0 5.0 0.00 0.20 0.02 81 1008.5
20260505185103 57 306 1.0 4.0 0.00 0.20 0.02 83 1008.3
20260505184601 57 290 1.0 3.0 0.00 0.20 0.02 85 1008.3
20260505183602 57 287 2.0 3.0 0.00 0.20 0.02 86 1008.1
20260505182100 57 265 0.0 0.0 0.00 0.20 0.02 83 1007.7
20260505181601 57 265 0.0 0.0 0.00 0.20 0.02 82 1007.7
20260505181101 57 265 0.0 0.0 0.00 0.20 0.02 81 1007.7
20260505180600 58 265 0.0 1.0 0.00 0.20 0.02 80 1007.7
20260505175559 60 301 0.0 2.0 0.00 0.20 0.02 74 1007.8
20260505174558 60 240 1.0 2.0 0.00 0.20 0.02 72 1007.9
20260505174058 60 241 0.0 2.0 0.00 0.20 0.02 73 1008.0
20260505173558 60 259 0.0 4.0 0.00 0.20 0.02 72 1008.0
20260505173052 60 288 2.0 4.0 0.00 0.20 0.02 72 1008.2
20260505171546 61 295 1.0 6.0 0.00 0.20 0.02 70 1007.9
20260505170543 62 325 2.0 7.0 0.00 0.20 0.02 68 1007.9
20260505170038 62 276 2.0 9.0 0.00 0.20 0.02 68 1007.9
20260505164956 63 294 2.0 6.0 0.00 0.20 0.02 67 1007.9
20260505164458 62 331 2.0 8.0 0.00 0.20 0.02 67 1007.8
20260505163952 63 17 2.0 8.0 0.00 0.20 0.02 67 1007.8
20260505163451 63 296 2.0 6.0 0.00 0.20 0.02 66 1007.9
20260505162950 63 313 2.0 6.0 0.00 0.20 0.02 66 1007.8
20260505162445 63 355 1.0 7.0 0.00 0.20 0.02 66 1007.8
20260505161943 63 288 3.0 9.0 0.00 0.20 0.02 66 1007.9
20260505160942 64 310 6.0 11.0 0.00 0.20 0.02 63 1007.8
20260505160439 65 55 3.0 7.0 0.00 0.20 0.02 64 1007.8
20260505152930 63 342 3.0 7.0 0.00 0.20 0.02 68 1007.8
20260505151428 63 355 2.0 6.0 0.00 0.20 0.02 68 1007.7
20260505150927 63 281 3.0 6.0 0.00 0.20 0.02 69 1007.7
20260505150428 63 320 3.0 5.0 0.00 0.20 0.02 69 1007.6
20260505140405 66 294 4.0 10.0 0.00 0.20 0.02 64 1007.8
20260505124901 69 257 1.0 5.0 0.00 0.20 0.02 47 1007.8
20260505124403 69 258 3.0 5.0 0.00 0.20 0.02 49 1007.8
20260505123900 69 265 2.0 4.0 0.00 0.20 0.02 47 1007.8
20260505123400 69 296 2.0 4.0 0.00 0.20 0.02 51 1007.8
20260505122405 69 274 2.0 7.0 0.00 0.20 0.02 49 1007.8
20260505121402 70 264 2.0 6.0 0.00 0.20 0.02 50 1007.8
20260505120901 71 355 0.0 4.0 0.00 0.20 0.02 53 1007.8
20260505120415 71 316 2.0 7.0 0.00 0.20 0.02 49 1007.7
20260505115902 71 242 3.0 7.0 0.00 0.20 0.02 50 1007.7
20260505115402 71 257 2.0 4.0 0.00 0.20 0.02 52 1007.8
20260505114905 71 288 1.0 4.0 0.00 0.20 0.02 53 1007.8
20260505114401 70 294 0.0 4.0 0.00 0.20 0.02 55 1007.8
20260505112902 69 338 0.0 1.0 0.00 0.20 0.02 55 1007.8
20260505112401 68 355 0.0 1.0 0.00 0.20 0.02 53 1008.0
20260505111858 68 355 0.0 3.0 0.00 0.20 0.02 57 1008.0
20260505111358 69 355 1.0 3.0 0.00 0.20 0.02 55 1008.1
20260505110857 70 346 2.0 3.0 0.00 0.20 0.02 56 1008.1
20260505110356 70 259 0.0 4.0 0.00 0.20 0.02 56 1008.0
20260505101845 69 334 1.0 3.0 0.00 0.20 0.02 58 1008.4
20260505101335 69 165 1.0 3.0 0.00 0.20 0.02 63 1008.4
20260505100831 70 118 1.0 3.0 0.00 0.20 0.02 72 1008.4
20260505100330 67 130 0.0 3.0 0.00 0.20 0.02 68 1008.6
20260505095829 67 127 1.0 3.0 0.00 0.20 0.02 70 1008.7
20260505095329 67 123 2.0 3.0 0.00 0.20 0.02 73 1008.7
20260505094829 66 82 1.0 3.0 0.00 0.20 0.02 71 1008.6
20260505094328 67 90 0.0 2.0 0.00 0.20 0.02 70 1008.7
20260505093827 66 89 1.0 2.0 0.00 0.20 0.02 68 1008.8
20260505093320 66 100 0.0 4.0 0.00 0.20 0.02 70 1008.8
20260505092819 67 217 3.0 4.0 0.00 0.20 0.02 68 1008.8
20260505092316 67 137 1.0 4.0 0.00 0.20 0.02 77 1009.0
20260505091816 67 213 2.0 4.0 0.00 0.20 0.02 75 1009.0
20260505091316 65 238 0.0 3.0 0.00 0.20 0.02 78 1009.2
20260505090814 65 208 2.0 3.0 0.00 0.20 0.02 75 1009.3
20260505085810 64 124 0.0 3.0 0.00 0.20 0.02 74 1009.4
20260505085309 65 117 1.0 4.0 0.00 0.20 0.02 79 1009.3
20260505084309 63 114 1.0 3.0 0.00 0.20 0.02 80 1009.5
20260505083808 62 202 1.0 3.0 0.00 0.20 0.02 80 1009.4
20260505083307 61 155 0.0 4.0 0.00 0.20 0.02 82 1009.4
20260505082808 61 221 3.0 4.0 0.00 0.20 0.02 80 1009.4
20260505082307 61 165 1.0 3.0 0.00 0.20 0.02 80 1009.3
20260505081803 61 157 0.0 3.0 0.00 0.20 0.02 81 1009.5
20260505081304 60 244 0.0 2.0 0.00 0.20 0.02 84 1009.7
20260505080802 60 244 0.0 2.0 0.00 0.20 0.02 85 1009.7
20260505080304 59 236 0.0 3.0 0.00 0.20 0.02 86 1009.8
20260505075802 59 236 2.0 3.0 0.00 0.20 0.02 84 1009.9
20260505074801 58 260 1.0 3.0 0.00 0.20 0.02 86 1010.1
20260505074302 58 275 1.0 3.0 0.00 0.20 0.02 86 1010.1
20260505073800 58 275 0.0 3.0 0.00 0.20 0.02 86 1010.1
20260505073303 58 258 0.0 3.0 0.00 0.20 0.02 87 1010.2
20260505072805 58 259 1.0 4.0 0.00 0.20 0.02 88 1010.3
20260505071803 57 242 1.0 4.0 0.00 0.20 0.02 89 1010.3
20260505071256 56 256 0.0 6.0 0.00 0.20 0.02 89 1010.3
20260505070754 56 234 2.0 6.0 0.00 0.20 0.02 90 1010.4
20260505070253 56 238 2.0 6.0 0.00 0.20 0.02 90 1010.3
20260505065748 56 278 2.0 4.0 0.00 0.20 0.02 90 1010.4
20260505065246 55 229 1.0 4.0 0.00 0.20 0.02 91 1010.4
20260505064748 55 250 2.0 6.0 0.00 0.20 0.02 92 1010.4
20260505064246 55 267 2.0 6.0 0.00 0.20 0.02 92 1010.4
20260505063744 55 208 0.0 0.0 0.00 0.20 0.02 92 1010.3
20260505063243 54 246 0.0 0.0 0.00 0.20 0.02 92 1010.2
20260505062740 54 216 0.0 0.0 0.00 0.20 0.02 92 1010.2
20260505062238 54 284 0.0 0.0 0.00 0.20 0.02 93 1010.1
20260505061737 53 278 0.0 0.0 0.00 0.20 0.02 94 1010.0
20260505061236 53 296 0.0 0.0 0.00 0.20 0.02 94 1010.1
20260505060735 53 307 0.0 0.0 0.00 0.20 0.02 95 1010.1
20260505060232 52 307 0.0 0.0 0.00 0.20 0.02 95 1010.1
20260505055733 52 296 0.0 0.0 0.00 0.20 0.02 96 1010.2
20260505055233 52 227 0.0 0.0 0.00 0.20 0.02 96 1010.2
20260505054732 51 227 0.0 0.0 0.00 0.20 0.02 96 1010.2
20260505054231 51 227 0.0 0.0 0.01 0.20 0.02 97 1010.3
20260505053730 51 227 0.0 0.0 0.01 0.20 0.02 97 1010.3
20260505053233 50 227 0.0 0.0 0.01 0.20 0.02 97 1010.3
20260505052731 50 227 0.0 0.0 0.01 0.20 0.02 97 1010.3
20260505052230 50 268 0.0 0.0 0.01 0.20 0.02 97 1010.3
20260505051728 49 268 0.0 0.0 0.01 0.20 0.02 98 1010.3
20260505051228 49 268 0.0 0.0 0.01 0.20 0.02 98 1010.3
20260505050728 49 268 0.0 0.0 0.01 0.20 0.02 98 1010.3
20260505050226 48 268 0.0 0.0 0.01 0.20 0.02 98 1010.3
20260505041710 47 268 0.0 0.0 0.00 0.19 0.01 97 1010.4
20260505040710 47 268 0.0 0.0 0.00 0.19 0.01 97 1010.4
20260505040203 47 268 0.0 0.0 0.00 0.19 0.01 97 1010.6
20260505035703 47 268 0.0 0.0 0.00 0.19 0.01 97 1010.5
20260505035202 48 268 0.0 0.0 0.00 0.19 0.01 97 1010.6
20260505034159 48 268 0.0 0.0 0.00 0.19 0.01 97 1010.5
20260505033657 48 268 0.0 0.0 0.00 0.19 0.01 97 1010.5
20260505033157 48 268 0.0 0.0 0.00 0.19 0.01 97 1010.6
20260505032656 48 268 0.0 0.0 0.00 0.19 0.01 97 1010.9
20260505032155 48 268 0.0 0.0 0.00 0.19 0.01 97 1010.9
20260505031650 48 268 0.0 0.0 0.00 0.19 0.01 97 1010.9
20260505031149 48 268 0.0 0.0 0.00 0.19 0.01 97 1010.9
20260505030650 48 268 0.0 0.0 0.00 0.19 0.01 97 1011.1
20260505030143 49 268 0.0 0.0 0.00 0.19 0.01 97 1011.1
20260505025138 49 268 0.0 0.0 0.00 0.19 0.01 97 1011.1
20260505024637 49 268 0.0 0.0 0.00 0.19 0.01 97 1011.2
20260505024136 49 268 0.0 0.0 0.00 0.19 0.01 97 1011.2